Yakima, WA

6:40 PM PDT on April 24, 2017 (GMT -0700)
Yakima Air Term-McAllister

Weather History for KYKM - February, 2013

Change the Weather History Date:

Thursday, February 28, 2013

  Actual Average Record
Temperature  
Mean Temperature 46 °F 39 °F  
Max Temperature 51 °F 51 °F 65 °F (1972)
Min Temperature 40 °F 27 °F 10 °F (1960)
Degree Days  
Heating Degree Days 19 26  
Month to date heating degree days 694 809  
Since 1 July heating degree days 3963 4527  
Cooling Degree Days 0 0  
Month to date cooling degree days 0 0  
Year to date cooling degree days 0 0  
Moisture  
Dew Point 37 °F    
Average Humidity 73    
Maximum Humidity 83    
Minimum Humidity 62    
Precipitation  
Precipitation 0.03 in 0.03 in 0.52 in (2006)
Month to date precipitation 0.03 0.78  
Year to date precipitation 0.13 1.92  
Snow  
Snow 0.00 in 0.10 in 5.00 in (2012)
Month to date snowfall 0.0 2.6  
Year to date snowfall 1.1 7.9  
Since 1 July snowfall 15.3 20.9  
Snow Depth 0.00 in    
Sea Level Pressure  
Sea Level Pressure 30.30 in    
Wind  
Wind Speed 3 mph (West)    
Max Wind Speed 10 mph    
Max Gust Speed 28 mph    
Visibility 10 miles    
Events Rain    
T = Trace of Precipitation, MM = Missing Value Source: NWS Daily Summary

Daily Weather History Graph

Daily Weather History Graph

Search for Another Location

Airport or City:

Trip Planner

Search our weather history database for the weather conditions in past years. The results will help you decide how hot, cold, wet, or windy it might be!

Date:

Astronomy

Feb. 28, 2013 Rise Set
Actual Time 6:42 AM PST 5:47 PM PST
Civil Twilight 6:12 AM PST 6:17 PM PST
Nautical Twilight 5:37 AM PST 6:52 PM PST
Astronomical Twilight 5:02 AM PST 7:27 PM PST
Moon 9:36 PM PST (2/28) 7:41 AM PST (2/28)
Length of Visible Light 12h 05m
Length of Day
11h 04m
Waning Gibbous, 90% of the Moon is Illuminated
Feb 28
Waning Gibbous
Mar 4
Last Quarter
Mar 11
New
Mar 19
First Quarter
Mar 27
Full

Hourly Weather History & Observations

Time (PST) Temp. Windchill Dew Point Humidity Pressure Visibility Wind Dir Wind Speed Gust Speed Precip Events Conditions
12:53 AM 44.1 °F - 32.0 °F 63% 30.25 in 10.0 mi Calm Calm - N/A   Overcast
1:53 AM 43.0 °F 40.3 °F 32.0 °F 65% 30.25 in 10.0 mi WSW 4.6 mph - N/A   Overcast
2:53 AM 45.0 °F 41.2 °F 33.1 °F 63% 30.24 in 10.0 mi West 6.9 mph - 0.00 in Rain Light Rain
3:53 AM 44.1 °F 40.1 °F 34.0 °F 68% 30.25 in 10.0 mi West 6.9 mph - 0.00 in Rain Light Rain
4:53 AM 43.0 °F 40.3 °F 35.1 °F 74% 30.26 in 10.0 mi West 4.6 mph - 0.00 in Rain Light Rain
5:53 AM 43.0 °F 39.5 °F 36.0 °F 76% 30.27 in 10.0 mi WSW 5.8 mph - 0.01 in   Overcast
6:13 AM 42.8 °F 40.1 °F 37.4 °F 81% 30.26 in 9.0 mi West 4.6 mph - 0.01 in Rain Light Rain
6:53 AM 42.1 °F 40.2 °F 37.9 °F 85% 30.28 in 10.0 mi West 3.5 mph - 0.02 in Rain Light Rain
7:53 AM 43.0 °F 40.3 °F 37.9 °F 82% 30.30 in 10.0 mi WSW 4.6 mph - 0.00 in   Overcast
8:53 AM 44.1 °F 42.5 °F 39.0 °F 82% 30.31 in 10.0 mi West 3.5 mph - N/A   Overcast
9:53 AM 45.0 °F 43.5 °F 37.9 °F 76% 30.31 in 10.0 mi NNW 3.5 mph - 0.00 in Rain Light Rain
10:53 AM 46.0 °F 44.8 °F 37.9 °F 73% 30.31 in 10.0 mi NW 3.5 mph - 0.00 in   Overcast
11:53 AM 48.0 °F - 39.9 °F 74% 30.30 in 10.0 mi Calm Calm - 0.00 in   Overcast
12:53 PM 48.0 °F - 39.0 °F 71% 30.30 in 10.0 mi Calm Calm - N/A   Overcast
1:53 PM 48.0 °F - 39.0 °F 71% 30.29 in 10.0 mi Calm Calm - N/A   Overcast
2:53 PM 50.0 °F - 39.9 °F 68% 30.29 in 10.0 mi Calm Calm - N/A   Overcast
3:53 PM 51.1 °F - 39.9 °F 66% 30.30 in 10.0 mi Calm Calm - N/A   Overcast
4:53 PM 51.8 °F - 39.2 °F 62% 30.29 in 10.0 mi Calm Calm - N/A   Mostly Cloudy
5:53 PM 48.9 °F - 39.9 °F 71% 30.31 in 10.0 mi North 4.6 mph - N/A   Overcast
6:48 PM 42.8 °F 40.1 °F 37.4 °F 81% 30.30 in 10.0 mi SW 4.6 mph - N/A   Mostly Cloudy
6:53 PM 43.0 °F 41.3 °F 37.0 °F 80% 30.32 in 10.0 mi SW 3.5 mph - N/A   Mostly Cloudy
7:53 PM 42.1 °F 40.2 °F 37.0 °F 82% 30.34 in 10.0 mi West 3.5 mph - N/A   Mostly Cloudy
8:53 PM 43.0 °F 39.5 °F 37.9 °F 82% 30.34 in 10.0 mi West 5.8 mph - N/A   Overcast
9:53 PM 42.1 °F 39.2 °F 37.0 °F 82% 30.34 in 10.0 mi WNW 4.6 mph - N/A   Clear
10:53 PM 42.1 °F 40.2 °F 37.9 °F 85% 30.35 in 10.0 mi WSW 3.5 mph - N/A   Mostly Cloudy
11:53 PM 42.1 °F - 37.0 °F 82% 30.36 in 10.0 mi Calm Calm - N/A   Partly Cloudy